Balm FAWN current weather conditions

sailwx.info

Last reported at 2019-Sep-17 09:00 UTC.
Time now 2019-Dec-14 13:45 UTC

Location: N 27°46' W 082°13'.
View on Google Maps.

See reports from other nearby stations

  
Tides and Currents Weather Stations Pressure Air Temp Water Temp Dewpoint Dewpoint Depression Visibility Wind Speed Wind Dir Waves Ship Positions
date/time (UTC)wind fromknots sea level pressurealtimeterstation pressurevisibilityair tempwater tempwave heightnotes
2019-Dec-14 13:00 322 8 20.8
2019-Dec-14 12:45 311 8 20.9
2019-Dec-14 12:30 312 8 21.1
2019-Dec-14 12:15 290 11 22.1
2019-Dec-14 12:00 256 9 22.9
2019-Dec-14 11:45 232 6 22.9
2019-Dec-14 11:30 210 7 22.8
2019-Dec-14 10:45 210 7 22.8
2019-Dec-14 10:30 221 6 22.7
2019-Dec-14 10:15 212 6 22.6
2019-Dec-14 10:00 199 7 22.5
2019-Dec-14 09:45 206 7 22.5
2019-Dec-14 09:30 217 6 22.5
2019-Dec-14 09:00 212 5 22.4
2019-Dec-14 08:45 204 6 22.3
2019-Dec-14 08:30 209 7 22.2
2019-Dec-14 08:15 201 7 21.9
2019-Dec-14 08:00 192 7 21.5
2019-Dec-14 07:45 183 8 21.4
2019-Dec-14 07:30 179 7 21.3
2019-Dec-14 07:15 172 6 21.1
2019-Dec-14 07:00 177 5 21.2
2019-Dec-14 06:45 193 4 21.4
2019-Dec-14 06:30 226 3 21.5
2019-Dec-14 06:15 213 4 21.5
2019-Dec-14 06:00 211 4 21.7
2019-Dec-14 05:45 217 4 21.8
2019-Dec-14 05:30 217 5 21.8
2019-Dec-14 05:15 223 5 21.7
2019-Dec-14 05:00 213 5 21.6
2019-Dec-14 04:45 203 6 21.5
2019-Dec-14 04:30 195 6 21.3
2019-Dec-14 04:15 182 7 21.2
2019-Dec-14 04:00 182 7 21.1
2019-Dec-14 03:45 181 7 20.9
2019-Dec-14 03:30 192 5 21.0
2019-Dec-14 03:15 183 4 21.0
2019-Dec-14 03:00 173 4 21.0
2019-Dec-14 02:45 179 4 21.0
2019-Dec-14 02:30 194 4 21.0
2019-Dec-14 02:15 196 5 21.2
2019-Dec-14 02:00 192 5 21.2
2019-Dec-14 01:45 199 5 21.3
2019-Dec-14 01:30 189 7 21.2
2019-Dec-14 01:15 203 5 21.2
2019-Dec-14 01:00 166 7 21.0
2019-Dec-14 00:45 197 5 20.8
2019-Dec-14 00:30 208 3 20.8
2019-Dec-14 00:15 243 3 21.2
2019-Dec-14 00:00 216 3 21.2
2019-Dec-13 23:45 206 3 21.4
2019-Dec-13 23:30 226 3 21.7
2019-Dec-13 23:15 228 3 21.9
2019-Dec-13 23:00 213 3 22.0
2019-Dec-13 22:45 199 6 22.1
2019-Dec-13 22:30 192 6 22.2
2019-Dec-13 22:15 191 6 22.3
2019-Dec-13 22:00 182 7 22.4
2019-Dec-13 21:45 167 8 22.5
2019-Dec-13 21:30 182 3 22.6
2019-Dec-13 21:15 206 3 22.8
2019-Dec-13 21:00 221 3 22.9
2019-Dec-13 20:45 258 3 23.1
2019-Dec-13 20:30 266 4 23.6
2019-Dec-13 20:15 238 4 23.8
2019-Dec-13 20:00 227 3 23.8
2019-Dec-13 19:45 235 4 23.9
2019-Dec-13 19:30 239 5 24.1
2019-Dec-13 19:15 238 5 24.1
2019-Dec-13 19:00 232 6 24.2
2019-Dec-13 18:45 219 5 24.2
2019-Dec-13 18:30 222 3 23.9
2019-Dec-13 18:15 223 3 23.6
2019-Dec-13 18:00 206 3 23.6
2019-Dec-13 17:45 191 3 23.3
2019-Dec-13 17:30 171 5 23.0
2019-Dec-13 17:15 160 5 22.9
2019-Dec-13 17:00 161 5 22.8
2019-Dec-13 16:45 163 5 22.8
2019-Dec-13 16:30 170 4 22.5
2019-Dec-13 16:15 171 5 22.3
2019-Dec-13 16:00 160 4 22.2
2019-Dec-13 15:45 146 4 22.0
2019-Dec-13 15:30 127 3 21.8
2019-Dec-13 15:15 137 4 21.6
2019-Dec-13 15:00 144 4 21.2
2019-Dec-13 14:45 145 2 21.0
2019-Dec-13 14:30 141 3 20.9
2019-Dec-13 14:15 152 3 20.7
2019-Dec-13 14:00 123 4 20.4
2019-Dec-13 13:45 115 5 20.2
2019-Dec-13 13:30 127 3 20.0
2019-Dec-13 13:15 123 4 19.7
2019-Dec-13 13:00 125 3 19.4
2019-Dec-13 12:45 104 2 19.2
2019-Dec-13 12:30 134 3 19.3
2019-Dec-13 12:15 140 3 19.3
2019-Dec-13 12:00 109 4 19.4
2019-Dec-13 11:45 108 3 19.5
2019-Dec-13 11:30 112 3 19.5
2019-Dec-13 11:15 117 5 19.4
2019-Dec-13 11:00 112 2 19.4
2019-Dec-13 10:45 108 4 19.3
2019-Dec-13 10:30 080 3 19.3
2019-Dec-13 10:15 101 2 19.5
2019-Dec-13 10:00 097 3 19.5
2019-Dec-13 09:45 110 5 19.5
2019-Dec-13 09:30 110 3 19.6
2019-Dec-13 09:15 106 5 19.6
2019-Dec-13 08:45 093 4 19.3
2019-Dec-13 08:30 073 2 19.5
2019-Dec-13 08:15 089 3 19.4
2019-Dec-13 08:00 118 3 19.2
2019-Dec-13 07:45 070 2 19.4
2019-Dec-13 07:30 094 3 19.6
2019-Dec-13 07:00 109 6 19.5
2019-Dec-13 06:45 095 5 19.4
2019-Dec-13 06:30 084 4 19.6
2019-Dec-13 06:15 097 5 19.8
2019-Dec-13 06:00 111 6 19.8
2019-Dec-13 05:45 098 7 19.9
2019-Dec-13 05:30 106 6 19.9
2019-Dec-13 05:00 090 6 20.1
2019-Dec-13 04:45 090 8 20.1
2019-Dec-13 04:30 092 7 20.3
2019-Dec-13 04:15 082 6 20.5
2019-Dec-13 04:00 075 5 20.5
2019-Dec-13 03:45 081 6 20.5
2019-Dec-13 03:30 089 5 20.5
2019-Dec-13 03:15 094 5 20.6
2019-Dec-13 03:00 095 6 20.9
2019-Dec-13 02:45 102 6 21.0
2019-Dec-13 02:30 111 8 21.1
2019-Dec-13 02:15 110 10 21.2
2019-Dec-13 02:00 112 9 21.3
2019-Dec-13 01:45 116 12 21.5
2019-Dec-13 01:30 109 10 21.5
2019-Dec-13 01:15 097 8 21.5
2019-Dec-13 01:00 100 11 21.5
2019-Dec-13 00:45 094 10 21.6
2019-Dec-13 00:30 088 12 21.6
2019-Dec-13 00:15 089 13 21.6
2019-Dec-13 00:00 089 12 21.7
2019-Dec-12 23:45 086 11 21.8
2019-Dec-12 23:30 081 12 21.8
2019-Dec-12 23:15 078 11 21.9
2019-Dec-12 23:00 080 12 22.1
2019-Dec-12 22:45 081 13 22.2
2019-Dec-12 22:30 073 11 22.3
2019-Dec-12 22:15 074 12 22.5
2019-Dec-12 22:00 074 11 22.7
2019-Dec-12 21:45 073 10 22.9
2019-Dec-12 21:30 074 15 22.9
2019-Dec-12 21:15 075 14 23.1
2019-Dec-12 21:00 078 14 23.4
2019-Dec-12 20:45 079 17 23.5
2019-Dec-12 20:30 075 15 23.6
2019-Dec-12 20:15 080 12 23.1
2019-Dec-12 20:00 083 15 22.9
2019-Dec-12 19:45 072 11 23.2
2019-Dec-12 19:30 084 9 23.5
2019-Dec-12 19:15 075 12 24.6
2019-Dec-12 19:00 072 12 24.9
2019-Dec-12 18:45 077 13 24.9
2019-Dec-12 18:30 082 14 25.2
2019-Dec-12 18:15 077 17 24.8
2019-Dec-12 18:00 082 16 24.9
2019-Dec-12 17:45 083 15 24.4
2019-Dec-12 17:30 081 15 24.8
2019-Dec-12 17:15 082 12 23.9
2019-Dec-12 17:00 085 13 23.1
2019-Dec-12 16:45 090 13 23.4
2019-Dec-12 16:30 072 12 23.6
2019-Dec-12 16:15 059 9 23.2
2019-Dec-12 16:00 057 9 23.1
2019-Dec-12 15:45 062 10 23.1
2019-Dec-12 15:30 074 13 23.1
2019-Dec-12 15:15 071 13 23.0
2019-Dec-12 15:00 064 11 22.3
2019-Dec-12 14:45 058 10 21.6
2019-Dec-12 14:30 054 9 21.5
2019-Dec-12 14:15 048 7 21.2
2019-Dec-12 14:00 055 8 20.6
2019-Dec-12 13:45 048 8 20.3
2019-Dec-12 13:30 046 7 19.9
2019-Dec-12 13:15 047 6 19.6
2019-Dec-12 13:00 049 7 19.4